EW4443 Weather Reports


Display with metric or nautical units.
time (UTC)temp
F
wind
direction
speed
MPH
gust
MPH
rain 1hr
in
rain 24hr
in
rain mn
in
humidity
%
barometer
mb
20190421070856 76 180 2.0 7.0 0.00 0.00 0.00 25 1008.4
20190421070350 76 180 2.0 7.0 0.00 0.00 0.00 25 1008.4
20190421065829 76 180 6.0 7.0 0.00 0.00 0.00 25 1008.7
20190421065212 76 180 4.0 7.0 0.00 0.00 0.00 25 1008.4
20190421064549 77 158 3.0 6.0 0.00 0.00 0.00 24 1008.1
20190421064032 77 158 2.0 6.0 0.00 0.00 0.00 24 1008.4
20190421063529 77 135 3.0 6.0 0.00 0.00 0.00 22 1008.1
20190421063007 77 203 4.0 6.0 0.00 0.00 0.00 22 1008.4
20190421062454 78 225 4.0 6.0 0.00 0.00 0.00 22 1008.1
20190421061954 78 113 2.0 6.0 0.00 0.00 0.00 22 1008.4
20190421061350 78 113 4.0 8.0 0.00 0.00 0.00 20 1008.1
20190421060849 78 203 2.0 8.0 0.00 0.00 0.00 20 1007.7
20190421060336 78 180 2.0 9.0 0.00 0.00 0.00 20 1008.1
20190421055834 79 225 2.0 9.0 0.00 0.00 0.00 20 1007.7
20190421055304 79 158 2.0 8.0 0.00 0.00 0.00 20 1008.4
20190421054756 79 158 2.0 8.0 0.00 0.00 0.00 20 1007.7
20190421054253 79 135 2.0 6.0 0.00 0.00 0.00 20 1007.7
20190421053749 80 158 3.0 6.0 0.00 0.00 0.00 20 1008.1
20190421053243 80 203 2.0 6.0 0.00 0.00 0.00 20 1008.1
20190421052739 80 158 1.0 5.0 0.00 0.00 0.00 20 1008.1
20190421052232 80 158 2.0 5.0 0.00 0.00 0.00 20 1008.1
20190421051716 80 180 4.0 6.0 0.00 0.00 0.00 20 1008.1
20190421051116 80 180 2.0 6.0 0.00 0.00 0.00 20 1008.1
20190421050609 81 158 2.0 4.0 0.00 0.00 0.00 20 1007.7
20190421045829 81 203 1.0 6.0 0.00 0.00 0.00 20 1007.7
20190421045213 81 203 2.0 6.0 0.00 0.00 0.00 20 1007.4
20190421044715 81 158 2.0 6.0 0.00 0.00 0.00 20 1007.4
20190421044214 81 180 1.0 7.0 0.00 0.00 0.00 20 1007.7
20190421043714 81 203 2.0 9.0 0.00 0.00 0.00 20 1007.7
20190421043213 82 158 2.0 9.0 0.00 0.00 0.00 20 1007.4
20190421042714 82 158 2.0 7.0 0.00 0.00 0.00 20 1007.7
20190421042155 82 158 2.0 6.0 0.00 0.00 0.00 20 1007.7
20190421041654 82 158 2.0 5.0 0.00 0.00 0.00 22 1007.7
20190421041156 82 203 1.0 6.0 0.00 0.00 0.00 22 1007.4
20190421040655 82 158 2.0 6.0 0.00 0.00 0.00 22 1007.4
20190421040154 82 338 2.0 6.0 0.00 0.00 0.00 22 1006.9
20190421035654 82 225 2.0 6.0 0.00 0.00 0.00 22 1007.4
20190421035155 82 180 2.0 6.0 0.00 0.00 0.00 20 1006.9
20190421034655 83 158 2.0 6.0 0.00 0.00 0.00 20 1007.4
20190421034155 83 203 2.0 6.0 0.00 0.00 0.00 20 1007.4
20190421033655 83 203 1.0 3.0 0.00 0.00 0.00 20 1006.6
20190421033154 0 180 0.0 1.0 0.00 0.00 0.00 1006.6
20190421032656 84 180 0.0 1.0 0.00 0.00 0.00 20 1007.4
20190421032154 84 180 0.0 1.0 0.00 0.00 0.00 20 1006.3
20190421031655 0 225 1.0 1.0 0.00 0.00 0.00 1006.9
20190421031154 85 225 0.0 1.0 0.00 0.00 0.00 17 1006.9
20190421030655 85 225 1.0 1.0 0.00 0.00 0.00 17 1006.3
20190421030155 0 225 0.0 0.0 0.00 0.00 0.00 1006.3
20190421025655 85 225 0.0 3.0 0.00 0.00 0.00 17 1006.3
20190421025155 85 225 0.0 3.0 0.00 0.00 0.00 17 1006.3
20190421024654 86 225 0.0 4.0 0.00 0.00 0.00 17 1006.3
20190421024154 86 203 1.0 4.0 0.00 0.00 0.00 17 1006.3
20190421023654 86 338 0.0 2.0 0.00 0.00 0.00 17 1006.9
20190421023155 87 158 0.0 3.0 0.00 0.00 0.00 17 1006.3
20190421022648 87 135 1.0 3.0 0.00 0.00 0.00 17 1005.9
20190421022136 87 23 0.0 5.0 0.00 0.00 0.00 17 1006.6
20190421021636 88 270 1.0 5.0 0.00 0.00 0.00 17 1006.3
20190421021135 88 225 1.0 5.0 0.00 0.00 0.00 17 1005.9
20190421020636 88 180 1.0 7.0 0.00 0.00 0.00 17 1005.9
20190421020134 88 203 2.0 7.0 0.00 0.00 0.00 15 1005.9
20190421015622 88 158 1.0 7.0 0.00 0.00 0.00 15 1006.3
20190421015117 89 270 1.0 6.0 0.00 0.00 0.00 15 1006.3
20190421014617 89 293 1.0 7.0 0.00 0.00 0.00 15 1005.6
20190421014116 89 270 1.0 7.0 0.00 0.00 0.00 15 1005.6
20190421013617 89 203 2.0 10.0 0.00 0.00 0.00 15 1005.9
20190421013116 89 158 2.0 10.0 0.00 0.00 0.00 15 1005.6
20190421012616 89 225 1.0 6.0 0.00 0.00 0.00 15 1005.9
20190421012117 90 270 1.0 9.0 0.00 0.00 0.00 15 1006.3
20190421011615 90 180 2.0 9.0 0.00 0.00 0.00 15 1005.9
20190421011115 90 203 1.0 6.0 0.00 0.00 0.00 15 1005.9
20190421010617 90 270 1.0 5.0 0.00 0.00 0.00 15 1006.3
20190421010058 90 248 1.0 7.0 0.00 0.00 0.00 15 1005.9
20190421005557 90 180 1.0 7.0 0.00 0.00 0.00 15 1006.6
20190421005058 91 270 2.0 9.0 0.00 0.00 0.00 13 1006.3
20190421004556 91 315 2.0 9.0 0.00 0.00 0.00 13 1005.9
20190421004057 91 270 2.0 9.0 0.00 0.00 0.00 13 1005.6
20190421003056 92 135 2.0 9.0 0.00 0.00 0.00 13 1005.9
20190421002556 92 113 2.0 9.0 0.00 0.00 0.00 13 1006.3
20190421002057 92 180 2.0 8.0 0.00 0.00 0.00 13 1005.6
20190421001557 92 270 2.0 8.0 0.00 0.00 0.00 13 1005.9
20190421001056 92 158 2.0 7.0 0.00 0.00 0.00 13 1006.3
20190421000617 92 293 2.0 8.0 0.00 0.00 0.00 13 1006.3
20190421000055 92 293 2.0 8.0 0.00 0.00 0.00 12 1005.6
20190420235557 92 203 2.0 8.0 0.00 0.00 0.00 13 1006.3
20190420235059 92 338 1.0 8.0 0.00 0.00 0.00 13 1006.3
20190420234555 92 270 2.0 8.0 0.00 0.00 0.00 12 1006.3
20190420234056 93 45 1.0 9.0 0.00 0.00 0.00 12 1005.6
20190420233555 93 293 2.0 9.0 0.00 0.00 0.00 12 1005.9
20190420233056 93 270 2.0 7.0 0.00 0.00 0.00 12 1006.6
20190420232551 93 203 2.0 9.0 0.00 0.00 0.00 12 1006.6
20190420232045 94 180 5.0 9.0 0.00 0.00 0.00 12 1006.3
20190420231353 94 180 4.0 7.0 0.00 0.00 0.00 12 1006.9
20190420230845 93 158 3.0 7.0 0.00 0.00 0.00 12 1006.3
20190420230343 0 158 5.0 7.0 0.00 0.00 0.00 1006.3
20190420225841 0 225 3.0 7.0 0.00 0.00 0.00 1005.9
20190420225326 0 180 4.0 9.0 0.00 0.00 0.00 1006.3
20190420224825 94 248 5.0 10.0 0.00 0.00 0.00 12 1006.6
20190420224326 94 113 3.0 11.0 0.00 0.00 0.00 12 1006.6
20190420223825 94 203 3.0 11.0 0.00 0.00 0.00 12 1006.3
20190420223325 94 180 2.0 10.0 0.00 0.00 0.00 12 1006.6
20190420222825 94 180 2.0 10.0 0.00 0.00 0.00 12 1006.3
20190420222325 94 225 1.0 8.0 0.00 0.00 0.00 12 1006.6
20190420221825 94 90 2.0 8.0 0.00 0.00 0.00 12 1006.3
20190420221325 94 203 1.0 8.0 0.00 0.00 0.00 12 1006.6
20190420220824 94 270 2.0 8.0 0.00 0.00 0.00 12 1006.6
20190420220326 94 135 2.0 8.0 0.00 0.00 0.00 12 1007.4
20190420215825 94 225 2.0 8.0 0.00 0.00 0.00 12 1006.6
20190420215323 94 180 2.0 8.0 0.00 0.00 0.00 12 1006.6
20190420214825 95 158 1.0 7.0 0.00 0.00 0.00 12 1006.6
20190420214324 95 158 1.0 7.0 0.00 0.00 0.00 12 1007.4
20190420213824 94 158 1.0 8.0 0.00 0.00 0.00 12 1007.4
20190420213323 94 180 2.0 11.0 0.00 0.00 0.00 12 1007.4
20190420212823 94 180 2.0 11.0 0.00 0.00 0.00 12 1007.7
20190420212323 94 113 2.0 7.0 0.00 0.00 0.00 12 1007.4
20190420211825 94 113 1.0 7.0 0.00 0.00 0.00 12 1007.4
20190420211324 94 293 1.0 9.0 0.00 0.00 0.00 13 1007.4
20190420210823 94 180 2.0 9.0 0.00 0.00 0.00 12 1008.1
20190420210324 94 158 2.0 9.0 0.00 0.00 0.00 13 1008.1
20190420205823 94 158 2.0 11.0 0.00 0.00 0.00 13 1007.4
20190420205324 94 158 2.0 11.0 0.00 0.00 0.00 12 1008.1
20190420204819 94 180 2.0 13.0 0.00 0.00 0.00 12 1008.7
20190420204305 93 180 2.0 13.0 0.00 0.00 0.00 12 1007.4
20190420203804 93 203 2.0 10.0 0.00 0.00 0.00 12 1008.4
20190420203305 93 158 1.0 9.0 0.00 0.00 0.00 12 1008.1
20190420202803 93 158 2.0 11.0 0.00 0.00 0.00 12 1008.1
20190420202304 93 180 2.0 11.0 0.00 0.00 0.00 13 1008.1
20190420201805 93 180 2.0 7.0 0.00 0.00 0.00 15 1008.1
20190420201304 93 180 2.0 8.0 0.00 0.00 0.00 13 1008.7
20190420200804 92 135 2.0 9.0 0.00 0.00 0.00 15 1008.1
20190420200305 92 158 2.0 9.0 0.00 0.00 0.00 13 1008.1
20190420195804 92 225 2.0 9.0 0.00 0.00 0.00 13 1008.4
20190420195303 92 158 2.0 11.0 0.00 0.00 0.00 13 1008.4
20190420194804 92 158 2.0 11.0 0.00 0.00 0.00 15 1008.1
20190420194302 92 203 2.0 7.0 0.00 0.00 0.00 13 1008.4
20190420193803 92 180 1.0 6.0 0.00 0.00 0.00 13 1009.1
20190420193304 91 270 1.0 7.0 0.00 0.00 0.00 13 1008.4
20190420192803 91 180 2.0 10.0 0.00 0.00 0.00 13 1008.4
20190420192306 91 203 2.0 10.0 0.00 0.00 0.00 13 1008.4
20190420191802 91 180 1.0 12.0 0.00 0.00 0.00 13 1009.1
20190420191301 91 180 2.0 12.0 0.00 0.00 0.00 12 1008.7
20190420190802 91 180 2.0 10.0 0.00 0.00 0.00 13 1008.7
20190420190304 91 180 2.0 11.0 0.00 0.00 0.00 12 1009.1
20190420185246 91 158 2.0 7.0 0.00 0.00 0.00 13 1008.4
20190420184744 90 225 2.0 10.0 0.00 0.00 0.00 13 1009.1
20190420184243 90 225 2.0 10.0 0.00 0.00 0.00 13 1009.4
20190420183743 90 158 2.0 10.0 0.00 0.00 0.00 15 1008.4
20190420183243 89 225 2.0 10.0 0.00 0.00 0.00 15 1008.7
20190420182744 89 158 2.0 9.0 0.00 0.00 0.00 15 1009.1
20190420182241 89 180 2.0 9.0 0.00 0.00 0.00 15 1009.1
20190420181744 89 158 2.0 12.0 0.00 0.00 0.00 15 1009.1
20190420181242 89 180 3.0 12.0 0.00 0.00 0.00 15 1009.4
20190420180743 89 203 2.0 9.0 0.00 0.00 0.00 15 1009.4
20190420180243 89 203 2.0 10.0 0.00 0.00 0.00 15 1009.4
20190420175737 89 225 2.0 13.0 0.00 0.00 0.00 15 1009.8
20190420175232 89 158 4.0 13.0 0.00 0.00 0.00 15 1009.4
20190420174729 89 158 3.0 13.0 0.00 0.00 0.00 13 1009.1
20190420174228 89 203 2.0 10.0 0.00 0.00 0.00 15 1008.7
20190420173721 0 180 7.0 10.0 0.00 0.00 0.00 1009.4
20190420173204 0 135 7.0 10.0 0.00 0.00 0.00 1009.4
20190420172705 0 180 7.0 10.0 0.00 0.00 0.00 1009.4
20190420172205 0 180 6.0 10.0 0.00 0.00 0.00 1009.1
20190420171704 0 225 7.0 10.0 0.00 0.00 0.00 1009.1
20190420171204 0 158 4.0 8.0 0.00 0.00 0.00 1009.4
20190420170705 0 180 4.0 7.0 0.00 0.00 0.00 1009.1
20190420170204 0 180 5.0 7.0 0.00 0.00 0.00 1009.4
20190420165704 0 158 4.0 8.0 0.00 0.00 0.00 1009.4
20190420165204 0 158 4.0 8.0 0.00 0.00 0.00 1009.8
20190420164705 0 203 4.0 6.0 0.00 0.00 0.00 1009.1
20190420164203 0 158 4.0 7.0 0.00 0.00 0.00 1009.4
20190420163705 0 180 4.0 8.0 0.00 0.00 0.00 1010.2
20190420163203 0 180 4.0 8.0 0.00 0.00 0.00 1010.2
20190420162704 0 158 4.0 6.0 0.00 0.00 0.00 1009.8
20190420162158 0 113 5.0 9.0 0.00 0.00 0.00 1009.4
20190420161644 0 203 6.0 9.0 0.00 0.00 0.00 1009.8
20190420161138 0 203 5.0 7.0 0.00 0.00 0.00 1009.8
20190420160356 80 180 4.0 7.0 0.00 0.00 0.00 22 1010.2
20190420155849 80 158 1.0 2.0 0.00 0.00 0.00 22 1009.8
20190420155155 80 180 2.0 4.0 0.00 0.00 0.00 22 1010.2
20190420154623 79 158 1.0 3.0 0.00 0.00 0.00 22 1009.8
20190420154105 0 158 3.0 4.0 0.00 0.00 0.00 1010.2
20190420153439 77 225 3.0 4.0 0.00 0.00 0.00 24 1010.2
20190420152919 77 135 1.0 5.0 0.00 0.00 0.00 24 1009.4
20190420152319 77 158 1.0 5.0 0.00 0.00 0.00 24 1009.8
20190420151819 76 113 1.0 3.0 0.00 0.00 0.00 25 1009.4
20190420151253 75 135 1.0 2.0 0.00 0.00 0.00 25 1009.8
20190420150452 74 135 1.0 3.0 0.00 0.00 0.00 29 1009.4
20190420145554 73 338 0.0 2.0 0.00 0.00 0.00 30 1009.4
20190420145033 73 0.0 0.0 0.00 0.00 0.00 30 1009.4
20190420144500 72 338 0.0 2.0 0.00 0.00 0.00 31 1009.4
20190420143703 72 338 0.0 2.0 0.00 0.00 0.00 32 1009.8
20190420143203 71 45 0.0 0.0 0.00 0.00 0.00 34 1009.8
20190420142704 71 45 0.0 0.0 0.00 0.00 0.00 34 1009.8
20190420142202 70 45 0.0 2.0 0.00 0.00 0.00 35 1009.4
20190420141700 69 113 0.0 2.0 0.00 0.00 0.00 35 1009.4
20190420141133 69 225 0.0 0.0 0.00 0.00 0.00 37 1010.2
20190420140615 68 225 0.0 0.0 0.00 0.00 0.00 37 1009.8
20190420140106 68 225 0.0 0.0 0.00 0.00 0.00 39 1009.4
20190420135548 67 225 0.0 0.0 0.00 0.00 0.00 37 1009.4
20190420135049 67 158 0.0 0.0 0.00 0.00 0.00 37 1009.4
20190420134515 66 338 0.0 0.0 0.00 0.00 0.00 37 1009.1
20190420134003 66 180 0.0 1.0 0.00 0.00 0.00 35 1009.1
20190420133454 66 23 0.0 1.0 0.00 0.00 0.00 37 1009.1
20190420132953 65 23 0.0 1.0 0.00 0.00 0.00 35 1008.7
20190420132452 65 270 0.0 0.0 0.00 0.00 0.00 34 1008.7
20190420131700 65 23 0.0 0.0 0.00 0.00 0.00 35 1008.7
20190420130658 65 180 0.0 1.0 0.00 0.00 0.00 35 1008.7
20190420130144 65 0 0.0 0.0 0.00 0.00 0.00 34 1008.7
20190420125622 65 180 0.0 0.0 0.00 0.00 0.00 35 1008.4
20190420125103 65 135 0.0 0.0 0.00 0.00 0.00 35 1008.4
20190420124547 65 90 0.0 0.0 0.00 0.00 0.00 35 1008.1
20190420124046 65 68 0.0 0.0 0.00 0.00 0.00 35 1008.4
20190420123544 66 68 0.0 0.0 0.00 0.00 0.00 35 1008.4
20190420123041 66 90 0.0 0.0 0.00 0.00 0.00 35 1008.7
20190420122527 66 90 0.0 0.0 0.00 0.00 0.00 35 1008.1
20190420121909 66 90 0.0 0.0 0.00 0.00 0.00 35 1008.4
20190420121356 67 68 0.0 0.0 0.00 0.00 0.00 35 1008.1
20190420120844 67 45 0.0 0.0 0.00 0.00 0.00 34 1008.4
20190420120334 67 23 0.0 1.0 0.00 0.00 0.00 34 1008.4
20190420115809 67 23 0.0 1.0 0.00 0.00 0.00 34 1008.7
20190420115256 67 338 0.0 0.0 0.00 0.00 0.00 34 1008.1
20190420114643 67 338 0.0 0.0 0.00 0.00 0.00 34 1008.1
20190420114144 67 338 0.0 2.0 0.00 0.00 0.00 32 1008.7
20190420113644 67 68 0.0 2.0 0.00 0.00 0.00 32 1008.1
20190420113144 67 338 0.0 0.0 0.00 0.00 0.00 32 1008.4
20190420112645 67 248 0.0 0.0 0.00 0.00 0.00 31 1008.7
20190420112141 67 248 0.0 0.0 0.00 0.00 0.00 31 1008.1
20190420111643 67 248 0.0 0.0 0.00 0.00 0.00 31 1008.1
20190420111141 67 248 0.0 1.0 0.00 0.00 0.00 31 1008.1
20190420110634 67 0 0.0 1.0 0.00 0.00 0.00 31 1008.1
20190420110124 67 270 0.0 1.0 0.00 0.00 0.00 31 1008.7
20190420105626 67 270 0.0 0.0 0.00 0.00 0.00 31 1008.1
20190420105125 67 270 0.0 0.0 0.00 0.00 0.00 32 1008.4
20190420104624 67 248 0.0 0.0 0.00 0.00 0.00 31 1008.4
20190420104115 67 270 0.0 0.0 0.00 0.00 0.00 32 1008.7
20190420103613 67 23 0.0 0.0 0.00 0.00 0.00 34 1008.7
20190420103107 67 23 0.0 0.0 0.00 0.00 0.00 34 1008.7
20190420102606 67 23 0.0 0.0 0.00 0.00 0.00 35 1008.4
20190420102106 68 45 0.0 1.0 0.00 0.00 0.00 35 1008.4
20190420101606 68 23 0.0 1.0 0.00 0.00 0.00 35 1008.4
20190420101107 68 45 0.0 0.0 0.00 0.00 0.00 34 1008.4
20190420100606 68 23 0.0 0.0 0.00 0.00 0.00 34 1008.4
20190420100106 68 45 0.0 0.0 0.00 0.00 0.00 34 1008.7
20190420095607 68 338 0.0 0.0 0.00 0.00 0.00 34 1008.7
20190420095106 69 45 0.0 0.0 0.00 0.00 0.00 34 1008.7
20190420094605 69 0 0.0 0.0 0.00 0.00 0.00 32 1008.7
20190420094105 69 45 0.0 2.0 0.00 0.00 0.00 32 1008.4
20190420093607 69 338 0.0 2.0 0.00 0.00 0.00 32 1008.4
20190420093100 70 45 0.0 0.0 0.00 0.00 0.00 30 1008.4
20190420092556 70 0 0.0 0.0 0.00 0.00 0.00 30 1008.4
20190420091030 70 270 0.0 0.0 0.00 0.00 0.00 29 1008.4
20190420090528 70 23 0.0 1.0 0.00 0.00 0.00 29 1008.4
20190420090030 70 270 0.0 1.0 0.00 0.00 0.00 29 1008.4
20190420085528 70 270 0.0 1.0 0.00 0.00 0.00 29 1008.4
20190420085029 70 45 0.0 1.0 0.00 0.00 0.00 30 1008.7
20190420084528 70 270 0.0 2.0 0.00 0.00 0.00 31 1008.4
20190420084029 70 248 0.0 2.0 0.00 0.00 0.00 31 1008.4
20190420083528 71 158 0.0 0.0 0.00 0.00 0.00 34 1008.4
20190420083030 71 23 0.0 0.0 0.00 0.00 0.00 32 1009.1
20190420082530 71 45 0.0 0.0 0.00 0.00 0.00 31 1008.7
20190420082028 71 158 0.0 0.0 0.00 0.00 0.00 30 1008.4
20190420081528 71 315 0.0 0.0 0.00 0.00 0.00 31 1008.4
20190420081027 71 0 0.0 0.0 0.00 0.00 0.00 30 1008.1
20190420080530 71 23 0.0 0.0 0.00 0.00 0.00 30 1008.1
20190420080028 71 45 0.0 0.0 0.00 0.00 0.00 30 1008.4
20190420075529 72 45 0.0 0.0 0.00 0.00 0.00 30 1008.4
20190420075028 72 45 0.0 0.0 0.00 0.00 0.00 30 1008.4
20190420074529 72 45 0.0 0.0 0.00 0.00 0.00 30 1008.7
20190420074029 72 45 0.0 0.0 0.00 0.00 0.00 30 1008.4
20190420073528 72 45 0.0 0.0 0.00 0.00 0.00 30 1008.7
20190420073029 73 45 0.0 0.0 0.00 0.00 0.00 30 1008.7
20190420072529 73 45 0.0 0.0 0.00 0.00 0.00 30 1008.4
20190420072029 73 45 0.0 0.0 0.00 0.00 0.00 30 1008.4
20190420071528 73 68 0.0 0.0 0.00 0.00 0.00 30 1008.1
20190420071030 73 45 0.0 0.0 0.00 0.00 0.00 30 1008.4